Flight Track Log - Related Links

Times and Time Zones

All times are in EDT time to prevent confusion due to time zone crossing. See the RPA3228 flight status page for this flight to view local times or setup timezone preferences in your user account.

Time Position Orientation Groundspeed Altitude Reporting Facility
EDT Latitude Longitude Course Direction KTS MPH feet Rate Location/Type
Fri 07:34:19 AM 36.1167 -86.6833 64° Northeast 139 160 1,700  Level Nashville TRACON
Fri 07:35:25 AM 36.0667 -86.6500 152° Southeast 231 266 4,300 3,071 Climbing Nashville TRACON
Fri 07:36:00 AM 36.1633 -86.2836 76° East  Level FlightAware Approximate
Fri 07:36:26 AM 36.0167 -86.5667 127° Southeast 306 352 8,200  Level Nashville TRACON
Fri 07:37:00 AM 36.1871 -86.1572 80° East  Level FlightAware Approximate
Fri 07:38:00 AM 36.2136 -86.0328 64° Northeast  Level FlightAware Approximate
Fri 07:38:12 AM 36.1108 -86.4228 51° Northeast 334 384 13,800  Level Indianapolis Center
Fri 07:39:00 AM 36.2601 -85.9165 64° Northeast  Level FlightAware Approximate
Fri 07:39:12 AM 36.1550 -86.3111 64° Northeast 353 406 16,900  Level Indianapolis Center
Fri 07:40:13 AM 36.1958 -86.1903 67° East 373 429 19,400 2,557 Climbing Indianapolis Center
Fri 07:41:14 AM 36.2397 -86.0639 67° East 389 448 22,100 2,410 Climbing Indianapolis Center
Fri 07:42:15 AM 36.2836 -85.9314 68° East 409 471 24,300 2,182 Climbing Indianapolis Center
Fri 07:43:15 AM 36.3297 -85.7958 67° East 425 489 26,500 2,033 Climbing Indianapolis Center
Fri 07:44:16 AM 36.3764 -85.6567 67° East 434 499 28,400 1,574 Climbing Indianapolis Center
Fri 07:45:17 AM 36.4253 -85.5114 67° East 450 518 29,700 1,131 Climbing Indianapolis Center
Fri 07:46:18 AM 36.4750 -85.3603 68° East 467 537 30,700 1,525 Climbing Indianapolis Center
Fri 07:47:19 AM 36.5261 -85.2083 67° East 473 544 32,800 2,132 Climbing Indianapolis Center
Fri 07:48:19 AM 36.5842 -85.0269 68° East 468 539 35,000 1,091 Climbing Indianapolis Center
Fri 07:49:20 AM 36.6322 -84.8819 68° East 453 521 35,000  Level Indianapolis Center
Fri 07:50:21 AM 36.6783 -84.7375 68° East 447 514 35,000  Level Indianapolis Center
Fri 07:51:22 AM 36.7264 -84.5897 68° East 456 525 35,000  Level Indianapolis Center
Fri 07:52:23 AM 36.7703 -84.4519 68° East 457 526 35,000  Level Indianapolis Center
Fri 07:53:24 AM 36.8175 -84.3061 68° East 452 520 35,000  Level Indianapolis Center
Fri 07:54:25 AM 36.8650 -84.1606 68° East 452 520 35,000  Level Indianapolis Center
Fri 07:55:26 AM 36.9108 -84.0153 68° East 450 518 35,000  Level Indianapolis Center
Fri 07:56:27 AM 36.9567 -83.8669 69° East 456 525 35,000  Level Indianapolis Center
Fri 07:57:27 AM 37.0061 -83.7197 67° East 461 531 35,000  Level Indianapolis Center
Fri 07:58:28 AM 37.0522 -83.5700 69° East 467 537 35,000  Level Indianapolis Center
Fri 07:59:29 AM 37.0992 -83.4181 69° East 469 540 35,000  Level Indianapolis Center
Fri 08:00:30 AM 37.1528 -83.2439 69° East 461 531 35,000  Level Indianapolis Center
Fri 08:01:31 AM 37.1994 -83.0933 69° East 459 528 35,000  Level Indianapolis Center
Fri 08:02:32 AM 37.2447 -82.9408 70° East 461 531 35,000  Level Indianapolis Center
Fri 08:03:33 AM 37.2903 -82.7917 69° East 456 525 35,000  Level Indianapolis Center
Fri 08:04:34 AM 37.3372 -82.6425 68° East 456 525 35,000  Level Indianapolis Center
Fri 08:05:35 AM 37.3811 -82.4956 69° East 450 518 35,000  Level Indianapolis Center
Fri 08:06:36 AM 37.4250 -82.3478 69° East 450 518 35,000  Level Indianapolis Center
Fri 08:07:37 AM 37.4689 -82.2019 69° East 447 514 35,000  Level Indianapolis Center
Fri 08:08:38 AM 37.5111 -82.0561 70° East 443 510 35,000  Level Indianapolis Center
Fri 08:09:39 AM 37.5544 -81.9106 69° East 443 510 35,000  Level Indianapolis Center
Fri 08:10:39 AM 37.5961 -81.7653 70° East 441 507 35,000  Level Indianapolis Center
Fri 08:11:40 AM 37.6389 -81.6203 70° East 440 506 35,000  Level Indianapolis Center
Fri 08:12:41 AM 37.6819 -81.4669 70° East 442 509 35,000  Level Indianapolis Center
Fri 08:13:42 AM 37.7233 -81.3261 70° East 440 506 35,000  Level Indianapolis Center
Fri 08:14:43 AM 37.7628 -81.1850 70° East 439 505 35,000  Level Indianapolis Center
Fri 08:15:44 AM 37.8086 -81.0444 68° East 444 511 35,000  Level Indianapolis Center
Fri 08:16:45 AM 37.8644 -80.8847 66° East 441 507 35,000  Level Indianapolis Center
Fri 08:17:46 AM 37.9142 -80.7461 66° East 436 502 35,000  Level Indianapolis Center
Fri 08:18:46 AM 37.9631 -80.6042 66° East 440 506 35,000  Level Indianapolis Center
Fri 08:19:20 AM 37.9922 -80.5297 64° Northeast 440 506 35,000  Level Washington Center
Fri 08:20:17 AM 38.0419 -80.3881 66° East 435 501 35,000  Level Washington Center
Fri 08:21:18 AM 38.0933 -80.2489 65° Northeast 435 501 35,000  Level Washington Center
Fri 08:22:19 AM 38.1425 -80.1092 66° East 435 501 35,000  Level Washington Center
Fri 08:23:20 AM 38.1867 -79.9825 66° East 435 501 35,000  Level Washington Center
Fri 08:24:18 AM 38.2356 -79.8425 66° East 435 501 35,000  Level Washington Center
Fri 08:25:18 AM 38.2864 -79.7000 66° East 435 501 35,000  Level Washington Center
Fri 08:26:17 AM 38.3369 -79.5625 65° Northeast 435 501 35,000 -450 Level Washington Center
Fri 08:27:18 AM 38.3833 -79.4192 68° East 435 501 34,100 -1,820 Descending Washington Center
Fri 08:28:19 AM 38.4322 -79.2547 69° East 435 501 31,300 -2,550 Descending Washington Center
Fri 08:29:18 AM 38.4597 -79.1022 77° East 435 501 29,000 -2,132 Descending Washington Center
Fri 08:30:20 AM 38.4892 -78.9444 77° East 440 506 27,000 -1,835 Descending Washington Center
Fri 08:31:19 AM 38.5078 -78.8019 80° East 451 519 25,300 -2,051 Descending Washington Center
Fri 08:32:17 AM 38.5303 -78.6544 79° East 440 506 23,000 -2,168 Descending Washington Center
Fri 08:33:18 AM 38.5528 -78.5119 79° East 423 487 21,000 -2,016 Descending Washington Center
Fri 08:34:19 AM 38.5769 -78.3722 77° East 410 472 18,900 -1,934 Descending Washington Center
Fri 08:35:19 AM 38.6194 -78.2436 67° East 390 449 17,100 -1,932 Descending Washington Center
Fri 08:36:17 AM 38.6658 -78.1203 64° Northeast 384 442 15,100 -2,017 Descending Washington Center
Fri 08:37:18 AM 38.7100 -78.0019 64° Northeast 371 427 13,100 -1,869 Descending Washington Center
Fri 08:38:19 AM 38.7517 -77.8889 65° Northeast 361 415 11,300 -1,041 Descending Washington Center
Fri 08:39:19 AM 38.7914 -77.7783 65° Northeast 350 403 11,000 -298 Descending Washington Center
Fri 08:40:20 AM 38.8411 -77.6706 59° Northeast 326 375 10,700 -793 Descending Washington Center
Fri 08:41:20 AM 38.8903 -77.5997 48° Northeast 301 346 9,400 -1,487 Descending Washington Center
Fri 08:42:17 AM 38.9400 -77.5053 56° Northeast 291 335 7,800 -1,696 Descending Washington Center
Fri 08:43:38 AM 38.9667 -77.3667 76° East 287 330 5,500 -1,479 Descending Potomac TRACON
Fri 08:44:39 AM 38.9833 -77.2833 76° East 262 302 4,300 -1,240 Descending Potomac TRACON
Fri 08:45:39 AM 38.9667 -77.2000 104° East 240 276 3,000 -800 Descending Potomac TRACON
Fri 08:46:39 AM 38.9500 -77.1333 108° East 198 228 2,700 -842 Descending Potomac TRACON
Fri 08:47:33 AM 38.9167 -77.0833 131° Southeast 171 197 1,400 -1,148 Descending Potomac TRACON
Fri 08:48:34 AM 38.8833 -77.0667 159° South 127 146 500 -885 Descending Potomac TRACON

Login

Don't have an account? Register now (free) for customized features, flight alerts, and more!